Regional Weather Roundup
Issued by NWS

Home | Current Version | Previous Version | Graphics & Text | Print | Product List | Glossary On
Versions: 1 2 3 4 5 6 7 8 9 10 11 12 13 14 15 16 17 18 19 20 21 22 23 24 25 26 27 28 29 30 31 32 33 34 35 36 37 38 39 40 41 42 43 44 45 46 47 48 49 50
000
ASUS43 KIND 281709
RWRIN

WEATHER ROUNDUP FOR INDIANA
NATIONAL WEATHER SERVICE INDIANAPOLIS IN
100 PM EDT SAT MAY 28 2016

NOTE: "FAIR" INDICATES FEW OR NO CLOUDS BELOW 12,000 FEET WITH NO
SIGNIFICANT WEATHER AND/OR OBSTRUCTIONS TO VISIBILITY.

* - STATION DOES NOT REPORT WEATHER SUCH AS PRECIPITATION OR FOG.

+ - STATION NOT QUALITY CONTROLLED BY THE NATIONAL WEATHER SERVICE.
    USE DATA WITH CAUTION...ESPECIALLY DEWPOINT AND RELATIVE
    HUMIDITY OBSERVATIONS.

INZ001>003-010>013-019-020-281800-
NORTHWEST INDIANA

CITY           SKY/WX    TMP DP  RH WIND       PRES   REMARKS
GARY /AIRPORT/ CLOUDY    79  72  78 S14G31    29.95S
KNOX *+          N/A     77  55  47 SW17G26   29.99S
LA PORTE +     CLOUDY    80  67  65 S16G23    29.99S
MICHIGAN CITY+ CLOUDY    79  66  65 S15G22    29.98S
MONTICELLO +   CLOUDY    81  58  45 SW15      30.00S
RENSSELAER +   CLOUDY    73  68  83 S15G25    30.00R
VALPARAISO     CLOUDY    78  65  63 S17G25    29.99R

$$

LMZ046-743>745-281800-
SOUTHERN LAKE MICHIGAN

STATION/POSITION TIME  TEMP    WIND        PRES    WAVE
                       AIR SEA DIR/SP/G            HT
                 (UTC) (F)     (DEG/KT/KT) (MB)    (FT)
BURNS HARBOR     1600   75     190/ 15     1014.6R
MICHIGAN CITY    1600   75     170/ 15/ 21   N/A
5NW MICH CITY    1700   71 58  210/ 17/ 23   N/A     2

$$

INZ004-005-014>016-021>024-281800-
NORTH CENTRAL INDIANA

CITY           SKY/WX    TMP DP  RH WIND       PRES   REMARKS
ELKHART        CLOUDY    81  66  61 SW16      30.01S
GOSHEN         MOSUNNY   79  59  50 S23G33    30.01S
LOGANSPORT +   CLOUDY    82  59  44 SW17G26   30.02F
PERU/GRISSOM   CLOUDY    82  63  52 SW20G29   30.01F
ROCHESTER +    CLOUDY    82  63  51 S14G24    30.02S
SOUTH BEND     CLOUDY    79  64  60 S21       30.00R
WARSAW +       CLOUDY    81  61  50 SW10G21   30.02S

$$

INZ006>009-017-018-025>027-281800-
NORTHEAST INDIANA

CITY           SKY/WX    TMP DP  RH WIND       PRES   REMARKS
ANGOLA *+        N/A     81  66  61 S8        30.04S
FORT WAYNE     CLOUDY    80  63  55 S18       30.05F
HUNTINGTON +   CLOUDY    80  63  57 S12       30.04F

$$

INZ028-029-035-036-043>045-051>053-281800-
WEST CENTRAL INDIANA

CITY           SKY/WX    TMP DP  RH WIND       PRES   REMARKS
CRAWFORDSVL +  CLOUDY    80  63  54 SW25      30.02S
GREENCASTLE +  MOSUNNY   81  68  65 S10G16    30.04S
LAFAYETTE      CLOUDY    80  63  55 SW15G24   30.00S
TERRE HAUTE    MOSUNNY   81  64  56 S15G24    30.01S

$$

INZ030>032-037>040-046>048-054>057-064-065-281800-
CENTRAL INDIANA

CITY           SKY/WX    TMP DP  RH WIND       PRES   REMARKS
CP ATTERBURY + PTSUNNY   81  68  65 S12       30.07S
COLUMBUS       PTSUNNY   79  70  73 S14       30.07S
FISHERS *+     MOSUNNY   82  68  61 S15G21    30.04F
FRANKFORT +      N/A     84  44  24 SW18G30   30.04S
GREENWOOD *+   CLOUDY    81  64  57 SW10G18   30.06F
INDIANAPOLIS   PTSUNNY   80  65  59 S14G23    30.02F
-EAGLE CREEK   PTSUNNY   81  64  56 S9        30.03F
KOKOMO *+      CLOUDY    82  64  54 S20G28    30.02F
MARION +       CLOUDY    82  62  50 S21G28    30.05F
SHELBYVILLE    MOSUNNY   84  65  52 S18       30.05F
ZIONSVILLE +   MOSUNNY   82  62  51 SW21G28   30.05S

$$

INZ033-034-041-042-049-050-058-059-281800-
EAST CENTRAL INDIANA

CITY           SKY/WX    TMP DP  RH WIND       PRES   REMARKS
MUNCIE         CLOUDY    83  64  52 SW12G17   30.06F

$$

INZ060-061-067>069-081>083-085>088-281800-
SOUTHWEST INDIANA

CITY           SKY/WX    TMP DP  RH WIND       PRES   REMARKS
EVANSVILLE     CLOUDY    80  59  48 SW16G25   30.03S
HUNTINGBURG *+ CLOUDY    81  66  61 S10G16    30.05S
WASHINGTON +   CLOUDY    82  67  60 S17       30.02S

$$

INZ062-063-066-070>080-084-089>092-281800-
SOUTH CENTRAL AND SOUTHEAST INDIANA

CITY           SKY/WX    TMP DP  RH WIND       PRES   REMARKS
BEDFORD +      CLOUDY    81  73  78 S10       30.05F
BLOOMINGTON    MOSUNNY   80  64  58 S9G17     30.05S
MADISON *+     CLOUDY    79  64  61 S9        30.12S
NORTH VERNON + PTSUNNY   82  73  74 S5        30.09F
SEYMOUR +      MOSUNNY   82  66  57 S10G20    30.07S

$$





USA.gov is the U.S. government's official web portal to all federal, state and local government web resources and services.